EN

Hourly Weather San Pédro

Today, 22 January, Friday

Time Temperature Precipitation Wind Pressure Humidity
00:00 +26°C° 0 mm 3 mps 749 mmHg 92%
01:00 +25°C° 0 mm 3 mps 749 mmHg 93%
02:00 +25°C° 0 mm 2 mps 748 mmHg 94%
03:00 +25°C° 0 mm 2 mps 748 mmHg 95%
04:00 +25°C° 0 mm 2 mps 748 mmHg 95%
05:00 +25°C° 0 mm 2 mps 748 mmHg 96%
06:00 +25°C° 0 mm 2 mps 748 mmHg 96%
07:00 +26°C° 0.1 mm 2 mps 749 mmHg 92%
08:00 +27°C° 0.1 mm 2 mps 749 mmHg 88%
09:00 +28°C° 0.1 mm 2 mps 750 mmHg 84%
10:00 +29°C° 0.2 mm 2 mps 750 mmHg 78%
11:00 +30°C° 0.2 mm 2 mps 750 mmHg 73%
12:00 +32°C° 0.2 mm 2 mps 750 mmHg 67%
13:00 +31°C° 0.7 mm 2 mps 749 mmHg 68%
14:00 +31°C° 0.7 mm 2 mps 749 mmHg 70%
15:00 +31°C° 0.7 mm 2 mps 748 mmHg 72%
16:00 +30°C° 0.4 mm 2 mps 748 mmHg 77%
17:00 +29°C° 0.4 mm 2 mps 748 mmHg 81%
18:00 +28°C° 0.4 mm 2 mps 748 mmHg 86%
19:00 +27°C° 0 mm 2 mps 748 mmHg 88%
20:00 +26°C° 0 mm 2 mps 749 mmHg 90%
21:00 +26°C° 0 mm 2 mps 750 mmHg 92%
22:00 +25°C° 0 mm 2 mps 750 mmHg 93%
23:00 +25°C° 0 mm 2 mps 750 mmHg 93%

Tomorrow, 23 January, Saturday

Time Temperature Precipitation Wind Pressure Humidity
00:00 +25°C° 0 mm 2 mps 750 mmHg 94%
01:00 +25°C° 0 mm 2 mps 749 mmHg 95%
02:00 +25°C° 0 mm 2 mps 748 mmHg 95%
03:00 +25°C° 0 mm 2 mps 748 mmHg 96%
04:00 +24°C° 0 mm 2 mps 748 mmHg 97%
05:00 +24°C° 0 mm 2 mps 748 mmHg 97%
06:00 +24°C° 0 mm 2 mps 748 mmHg 98%
07:00 +25°C° 0 mm 2 mps 749 mmHg 93%
08:00 +27°C° 0 mm 2 mps 749 mmHg 87%
09:00 +28°C° 0 mm 2 mps 750 mmHg 82%
10:00 +29°C° 0.1 mm 2 mps 750 mmHg 76%
11:00 +30°C° 0.1 mm 2 mps 750 mmHg 70%
12:00 +31°C° 0.1 mm 2 mps 749 mmHg 64%
13:00 +32°C° 0.1 mm 2 mps 749 mmHg 64%
14:00 +32°C° 0.1 mm 2 mps 748 mmHg 63%
15:00 +32°C° 0.1 mm 2 mps 747 mmHg 62%
16:00 +31°C° 0.1 mm 3 mps 747 mmHg 68%
17:00 +29°C° 0.1 mm 3 mps 747 mmHg 74%
18:00 +28°C° 0.1 mm 3 mps 747 mmHg 80%
19:00 +27°C° 0 mm 3 mps 747 mmHg 84%
20:00 +27°C° 0 mm 3 mps 748 mmHg 87%
21:00 +26°C° 0 mm 3 mps 749 mmHg 90%
22:00 +26°C° 0 mm 3 mps 749 mmHg 91%
23:00 +26°C° 0 mm 3 mps 749 mmHg 92%

Day after tomorrow, 24 January, Sunday

Time Temperature Precipitation Wind Pressure Humidity
00:00 +25°C° 0 mm 3 mps 749 mmHg 94%
01:00 +25°C° 0 mm 3 mps 748 mmHg 95%
02:00 +25°C° 0 mm 3 mps 748 mmHg 96%
03:00 +25°C° 0 mm 3 mps 747 mmHg 97%
04:00 +25°C° 0 mm 2 mps 747 mmHg 97%
05:00 +24°C° 0 mm 2 mps 747 mmHg 97%
06:00 +24°C° 0 mm 2 mps 748 mmHg 97%
07:00 +25°C° 0.1 mm 2 mps 748 mmHg 92%
08:00 +27°C° 0.1 mm 2 mps 749 mmHg 87%
09:00 +28°C° 0.1 mm 2 mps 749 mmHg 82%
10:00 +29°C° 0.1 mm 2 mps 749 mmHg 75%
11:00 +30°C° 0.1 mm 2 mps 749 mmHg 68%
12:00 +32°C° 0.1 mm 2 mps 749 mmHg 60%
13:00 +32°C° 0.1 mm 2 mps 748 mmHg 61%
14:00 +33°C° 0.1 mm 3 mps 747 mmHg 63%
15:00 +33°C° 0.1 mm 3 mps 747 mmHg 64%
16:00 +30°C° 0.2 mm 3 mps 747 mmHg 70%
17:00 +29°C° 0.2 mm 3 mps 747 mmHg 76%
18:00 +28°C° 0.2 mm 3 mps 747 mmHg 82%
19:00 +27°C° 0 mm 3 mps 747 mmHg 85%
20:00 +27°C° 0 mm 3 mps 748 mmHg 88%
21:00 +26°C° 0 mm 4 mps 748 mmHg 91%
22:00 +26°C° 0 mm 3 mps 748 mmHg 93%
23:00 +25°C° 0 mm 3 mps 748 mmHg 94%

25 January, Monday

Time Temperature Precipitation Wind Pressure Humidity
00:00 +25°C° 0 mm 3 mps 748 mmHg 96%
01:00 +25°C° 0 mm 3 mps 748 mmHg 96%
02:00 +25°C° 0 mm 3 mps 747 mmHg 97%
03:00 +25°C° 0 mm 2 mps 747 mmHg 97%
04:00 +24°C° 0.1 mm 2 mps 747 mmHg 97%
05:00 +24°C° 0.1 mm 2 mps 747 mmHg 98%
06:00 +24°C° 0.1 mm 3 mps 748 mmHg 98%
07:00 +25°C° 0 mm 2 mps 748 mmHg 93%
08:00 +26°C° 0 mm 2 mps 749 mmHg 88%
09:00 +28°C° 0 mm 2 mps 749 mmHg 83%
10:00 +29°C° 0.1 mm 2 mps 749 mmHg 75%
11:00 +30°C° 0.1 mm 2 mps 749 mmHg 68%
12:00 +32°C° 0.1 mm 2 mps 749 mmHg 60%
13:00 +33°C° 0.1 mm 3 mps 748 mmHg 61%
14:00 +33°C° 0.1 mm 3 mps 748 mmHg 61%
15:00 +33°C° 0.1 mm 3 mps 747 mmHg 61%
16:00 +30°C° 0.5 mm 3 mps 747 mmHg 70%
17:00 +29°C° 0.5 mm 3 mps 747 mmHg 78%
18:00 +27°C° 0.5 mm 3 mps 747 mmHg 86%
19:00 +27°C° 0.2 mm 3 mps 748 mmHg 89%
20:00 +26°C° 0.2 mm 3 mps 749 mmHg 91%
21:00 +25°C° 0.2 mm 3 mps 749 mmHg 94%
22:00 +25°C° 0 mm 3 mps 749 mmHg 94%
23:00 +25°C° 0 mm 3 mps 749 mmHg 95%

26 January, Tuesday

Time Temperature Precipitation Wind Pressure Humidity
00:00 +25°C° 0 mm 3 mps 749 mmHg 96%
01:00 +25°C° 0 mm 3 mps 748 mmHg 96%
02:00 +25°C° 0 mm 3 mps 748 mmHg 96%
03:00 +25°C° 0 mm 3 mps 747 mmHg 96%
04:00 +24°C° 0 mm 2 mps 748 mmHg 97%
05:00 +24°C° 0 mm 2 mps 748 mmHg 97%
06:00 +24°C° 0 mm 2 mps 748 mmHg 98%
07:00 +25°C° 0 mm 2 mps 749 mmHg 93%
08:00 +26°C° 0 mm 2 mps 749 mmHg 89%
09:00 +28°C° 0 mm 1 mps 750 mmHg 84%
10:00 +29°C° 0.1 mm 1 mps 750 mmHg 79%
11:00 +30°C° 0.1 mm 1 mps 750 mmHg 73%
12:00 +30°C° 0.1 mm 1 mps 749 mmHg 68%
13:00 +31°C° 0.2 mm 2 mps 749 mmHg 67%
14:00 +31°C° 0.2 mm 2 mps 748 mmHg 66%
15:00 +31°C° 0.2 mm 3 mps 748 mmHg 64%
16:00 +30°C° 0.1 mm 2 mps 748 mmHg 69%
17:00 +29°C° 0.1 mm 2 mps 748 mmHg 73%
18:00 +28°C° 0.1 mm 2 mps 748 mmHg 78%
19:00 +27°C° 0 mm 2 mps 748 mmHg 81%
20:00 +27°C° 0 mm 2 mps 749 mmHg 85%
21:00 +26°C° 0 mm 2 mps 749 mmHg 88%
22:00 +26°C° 0 mm 2 mps 749 mmHg 90%
23:00 +25°C° 0 mm 2 mps 749 mmHg 91%

27 January, Wednesday

Time Temperature Precipitation Wind Pressure Humidity
00:00 +25°C° 0 mm 2 mps 749 mmHg 92%
01:00 +25°C° 0 mm 2 mps 749 mmHg 93%
02:00 +25°C° 0 mm 2 mps 748 mmHg 94%
03:00 +25°C° 0 mm 2 mps 748 mmHg 94%
04:00 +24°C° 0 mm 2 mps 748 mmHg 95%
05:00 +24°C° 0 mm 2 mps 748 mmHg 96%
06:00 +24°C° 0 mm 2 mps 748 mmHg 97%
07:00 +25°C° 0.1 mm 2 mps 749 mmHg 91%
08:00 +27°C° 0.1 mm 2 mps 749 mmHg 84%
09:00 +28°C° 0.1 mm 2 mps 750 mmHg 78%
10:00 +30°C° 0.3 mm 1 mps 750 mmHg 72%
11:00 +31°C° 0.3 mm 1 mps 750 mmHg 66%
12:00 +33°C° 0.3 mm 1 mps 749 mmHg 60%
13:00 +32°C° 0.2 mm 1 mps 749 mmHg 62%
14:00 +32°C° 0.2 mm 2 mps 748 mmHg 64%
15:00 +31°C° 0.2 mm 3 mps 747 mmHg 66%
16:00 +30°C° 0.2 mm 3 mps 747 mmHg 70%
17:00 +29°C° 0.2 mm 2 mps 747 mmHg 75%
18:00 +28°C° 0.2 mm 2 mps 747 mmHg 79%
19:00 +27°C° 0 mm 2 mps 748 mmHg 82%
20:00 +26°C° 0 mm 2 mps 748 mmHg 84%
21:00 +26°C° 0 mm 2 mps 749 mmHg 87%
22:00 +26°C° 0 mm 2 mps 749 mmHg 88%
23:00 +25°C° 0 mm 2 mps 749 mmHg 89%
Show more

We Need Your Consent

Meteoprog and our Service Providers may store and access personal data such as cookies, device identifiers or other similar technologies on your device and process such data to personalise content and ads, as well as provide social media features and to analyse the traffic.

  • Store and/or access information on your device

    Cookies, device identifiers or other information can be stored or accessed on your device for the purposes indicated above.

  • Personalised ads and content, ad and content measurement, audience insights, and products development

    Ads and content can be personalised based on a profile. More data can be added to better personalise ads and content. Ad and content performance can be measured. Insights about the audience who saw the ads and content can be derived. Such data can be used to develop or improve user’s experience, systems and software.

By clicking ‘I Agree’ you will allow the use of indicated cookies, device identifiers, web beacons or other similar technologies. Your settings can be changed in the browser on your device.

For certain purposes, legitimate interests may be relied on, rather than consent. You can read more about this in our Privacy and Cookie Policy.